Wind_Speed
12 14 15 14 12 11 9 8 5 4 4 5 6 6 7 7 7 7 7 7 7 6 8 11 12 11 7 5 4 4 5 6 7 7 7 8 8 7 7 7 5 5 4
12 13 15 16 15 13 12 10 8 7 5 3 3 4 5 4 4 4 4 3 3 3 6 10 12 10 8 5 3 3 3 4 5 6 6 6 6 5 4 4 4 4 4
11 13 15 17 17 15 13 11 10 9 7 4 1 1 2 1 1 1 1 1 1 2 4 8 11 9 8 6 4 2 2 2 2 4 5 5 4 3 3 4 4 3 3
13 15 16 17 17 16 15 14 12 11 9 6 4 2 2 3 3 3 3 3 4 5 5 6 8 7 6 6 5 3 2 3 3 2 3 4 3 3 2 2 3 4 2
15 17 17 17 17 16 15 14 13 12 10 8 7 6 7 7 8 8 8 7 7 7 8 7 7 6 4 4 4 3 1 1 2 3 3 3 3 3 3 2 2 2 3
15 16 16 16 15 14 14 14 14 13 12 11 11 12 13 14 14 13 13 12 12 12 12 11 9 8 7 6 5 4 2 2 2 2 4 5 5 4 4 3 2 2 3
14 14 15 15 15 14 14 14 15 15 16 16 16 18 19 20 20 19 19 18 17 16 16 16 14 13 12 12 11 10 9 8 7 5 5 6 7 7 7 6 4 3 2
14 16 16 16 16 16 16 16 17 18 20 20 21 21 22 22 22 23 22 22 22 21 20 20 20 19 18 18 17 16 15 14 13 12 10 8 7 8 9 9 8 7 5
17 19 19 18 18 19 20 21 21 22 23 23 23 22 22 22 22 23 23 24 25 24 23 23 23 23 23 23 22 21 21 20 18 17 15 13 12 11 10 10 11 12 10
21 22 23 23 23 23 24 25 26 27 26 26 25 24 23 22 22 22 23 24 25 26 26 26 26 26 26 26 26 25 25 26 24 22 20 18 17 16 15 13 13 14 14
25 26 27 28 29 30 30 30 31 32 31 29 27 25 24 22 22 22 22 23 25 26 27 27 28 29 29 29 30 29 28 28 27 26 24 22 21 20 20 18 17 17 16
30 31 32 34 34 35 35 35 36 37 36 33 29 27 25 23 22 22 22 24 25 25 26 27 29 30 31 32 32 30 27 25 24 25 24 24 23 23 23 23 23 21 19
34 36 37 37 35 36 36 37 38 40 39 36 33 30 27 25 23 23 23 25 25 25 26 28 30 30 30 29 29 28 26 23 21 20 21 21 21 23 24 24 25 25 24
37 39 39 37 34 34 34 35 37 39 40 39 36 33 30 27 26 24 24 25 25 25 26 27 27 27 28 29 28 26 23 20 20 19 19 20 20 20 22 23 24 25 26
39 40 38 34 30 28 29 32 33 36 40 41 39 37 34 31 28 26 26 27 27 26 26 26 26 26 27 27 25 22 22 21 22 21 21 21 20 19 20 21 22 24 25
40 40 36 34 34 31 29 28 29 33 37 41 41 40 37 33 29 27 26 26 25 26 26 26 27 26 26 24 22 21 23 23 24 24 23 23 23 22 23 23 23 24 25
41 41 40 38 36 33 30 28 29 30 32 38 41 39 35 31 28 25 25 25 25 26 27 27 27 27 27 26 25 24 24 24 25 25 24 23 24 24 24 24 24 24 24
41 41 39 39 37 34 30 28 28 26 27 30 34 35 33 31 28 26 25 25 26 27 28 29 29 30 29 29 27 26 25 24 24 23 22 21 21 22 22 22 23 24 24
42 42 41 39 37 33 30 27 25 22 20 23 28 31 32 31 28 25 25 25 26 27 28 28 29 30 31 30 29 27 25 24 22 21 20 19 19 20 20 20 21 23 24
41 41 39 38 36 32 28 26 23 19 17 19 22 26 28 28 27 26 26 26 26 27 27 27 28 30 30 30 29 27 24 22 21 20 19 18 18 18 18 19 19 21 23
40 39 37 35 33 30 27 25 23 19 18 18 19 21 23 25 26 26 27 27 27 27 27 27 27 27 27 27 26 25 23 22 20 20 19 17 16 15 16 17 17 18 20
37 36 35 34 32 30 28 25 23 22 20 19 20 21 23 25 25 25 25 25 26 27 28 28 26 25 25 26 25 24 23 22 21 20 19 17 15 14 14 14 15 17 18
35 35 35 36 35 34 31 28 25 24 24 23 23 23 24 25 26 25 24 24 25 27 28 29 28 26 26 26 26 25 24 23 22 22 21 19 17 16 15 13 14 15 17
36 38 40 40 40 39 36 33 31 29 29 29 29 29 28 28 29 28 27 26 26 27 29 30 30 29 28 28 28 27 26 25 24 24 23 21 20 19 17 15 15 15 16
41 43 45 46 46 44 43 41 39 37 36 35 36 35 35 35 34 33 31 30 30 30 31 32 33 33 32 31 31 30 29 27 26 26 24 22 21 21 20 18 16 16 16
44 46 47 47 47 47 46 45 44 43 42 42 41 41 41 41 41 40 39 37 36 35 35 35 36 36 35 35 34 33 32 29 27 27 26 24 22 21 21 19 18 17 17
Wind_Direction
302 294 294 293 290 289 292 300 316 342 21 57 74 75 75 78 73 64 58 59 59 48 32 23 18 21 36 52 67 71 67 68 64 59 60 62 60 62 67 76 104 152 159
309 303 302 299 294 291 291 294 302 315 328 3 72 87 85 86 85 76 67 59 44 17 8 6 9 19 36 54 73 96 87 76 71 66 67 70 65 66 80 94 107 146 161
315 316 316 311 306 302 298 297 301 307 310 313 340 92 92 84 82 72 52 349 309 308 331 349 2 17 36 55 74 123 149 138 104 80 85 100 89 93 92 100 110 130 157
321 324 319 311 307 306 305 304 303 304 303 299 291 283 291 302 304 303 301 294 287 280 289 320 347 10 37 55 69 98 164 191 194 159 121 132 130 140 145 134 116 106 123
330 327 318 309 307 309 311 310 308 305 300 291 283 282 286 290 292 293 293 289 280 270 267 282 311 330 353 23 44 62 78 195 213 225 224 203 175 155 152 159 176 152 125
337 330 322 315 314 317 318 316 310 303 296 287 281 282 285 287 287 287 286 282 276 267 259 260 275 289 291 296 307 318 318 304 272 244 248 248 238 225 211 195 167 180 180
330 323 319 318 316 315 314 311 305 298 292 287 285 284 286 287 287 286 284 281 277 271 265 261 263 270 273 275 278 285 291 291 289 280 263 255 254 249 244 239 235 221 193
318 314 312 311 309 306 302 298 294 290 287 285 284 284 285 285 284 282 279 277 274 271 268 265 263 265 266 268 270 273 278 283 285 284 280 270 262 260 255 251 246 244 231
305 306 305 304 302 300 297 293 289 285 282 281 281 281 282 283 282 279 274 271 269 267 266 265 264 265 267 268 268 270 273 276 277 279 278 275 269 261 257 252 246 243 241
297 298 300 300 299 297 295 291 287 284 281 279 278 279 280 280 278 275 272 268 265 263 262 262 263 265 266 268 269 269 270 272 274 274 274 271 268 263 257 250 244 239 237
295 294 294 295 295 294 295 292 287 284 281 278 275 275 276 275 274 272 269 267 265 263 261 261 261 262 263 265 267 267 268 270 271 271 270 268 264 261 257 252 246 239 233
295 294 293 292 292 292 293 293 287 281 278 275 272 272 272 271 271 270 268 265 264 263 262 261 260 260 261 264 267 271 273 275 275 270 265 264 263 260 256 251 249 242 234
295 294 292 289 287 287 287 289 286 280 275 273 270 269 269 270 270 270 269 266 264 262 262 261 261 261 264 266 268 271 275 279 281 274 264 262 263 260 255 252 251 248 238
290 289 286 284 287 287 282 286 286 279 271 267 268 267 266 268 270 271 270 266 262 260 261 263 264 264 265 264 264 267 271 274 280 274 265 262 261 259 257 255 254 251 243
286 286 286 291 303 302 293 297 294 282 270 264 264 265 264 265 268 269 266 264 259 257 260 264 265 264 267 267 264 264 267 271 274 273 267 263 258 254 254 256 256 251 245
293 295 303 318 325 324 318 305 301 289 273 262 259 260 261 262 265 268 268 264 257 256 259 261 261 261 264 266 266 264 265 267 269 270 267 263 261 260 259 258 257 255 250
306 311 319 324 327 328 327 317 312 298 277 260 257 260 261 264 266 269 269 265 259 256 256 256 256 257 259 261 262 263 263 264 265 266 265 264 264 265 264 262 260 259 254
310 316 322 325 326 327 328 325 322 305 282 263 260 261 261 263 265 269 269 265 261 257 255 254 252 253 255 258 261 262 262 260 260 262 263 264 266 267 266 263 260 258 256
311 315 318 319 322 325 328 328 326 314 286 271 264 262 264 264 266 268 268 265 262 260 257 253 251 250 251 253 257 260 260 257 256 257 260 265 268 268 267 265 261 257 255
307 310 313 316 320 323 326 325 322 314 290 274 269 267 263 260 264 267 266 263 260 259 257 254 251 250 249 250 252 254 253 251 251 253 259 264 266 266 267 266 263 259 256
302 305 308 313 317 319 320 318 315 307 294 281 272 268 264 260 261 264 265 261 258 256 254 253 251 251 249 246 244 244 244 243 244 248 253 257 260 263 266 266 266 264 261
298 301 304 307 310 311 310 308 304 299 292 280 271 270 267 262 259 261 262 260 257 254 252 252 250 248 245 242 238 238 240 241 242 246 249 252 256 262 266 268 268 267 265
294 297 300 303 304 304 302 297 293 291 287 281 273 269 269 265 261 259 260 260 257 254 252 251 250 246 242 239 238 238 240 241 243 244 247 249 253 258 264 270 272 271 268
293 296 298 300 301 300 298 294 288 284 280 277 274 270 265 261 259 258 260 261 259 255 251 250 250 247 242 239 238 239 241 242 244 245 245 247 250 255 260 266 271 273 272
298 298 299 300 300 299 296 293 288 283 278 274 270 266 263 261 259 258 259 260 259 256 252 249 248 247 244 240 238 239 241 243 244 246 246 247 251 254 257 260 265 271 273
298 298 298 298 297 296 294 291 288 283 279 274 269 264 260 258 256 256 256 256 255 254 252 249 247 245 244 241 239 238 239 241 243 246 249 250 252 255 256 256 261 269 274
Height
5915 5914 5913 5912 5912 5911 5910 5909 5907 5906 5906 5905 5905 5905 5904 5904 5904 5904 5904 5903 5903 5903 5902 5901 5901 5900 5899 5898 5898 5898 5898 5898 5897 5896 5895 5895 5895 5895 5894 5894 5894 5894 5895
5914 5913 5912 5911 5911 5910 5909 5908 5907 5906 5905 5905 5904 5904 5904 5904 5903 5903 5903 5903 5903 5903 5902 5901 5900 5899 5898 5897 5897 5898 5898 5898 5897 5896 5896 5896 5896 5896 5896 5896 5896 5896 5895
5913 5912 5911 5910 5910 5909 5908 5907 5906 5905 5905 5904 5904 5903 5903 5903 5903 5902 5902 5903 5902 5902 5902 5901 5900 5899 5898 5897 5897 5897 5897 5897 5897 5897 5896 5896 5896 5897 5897 5896 5896 5896 5896
5912 5911 5911 5910 5909 5908 5907 5906 5906 5905 5904 5904 5903 5903 5903 5903 5902 5902 5902 5901 5901 5901 5901 5901 5900 5899 5898 5897 5896 5896 5897 5897 5897 5897 5896 5896 5896 5896 5897 5897 5896 5896 5895
5912 5911 5910 5909 5908 5906 5905 5905 5904 5904 5903 5903 5903 5902 5902 5901 5901 5901 5901 5900 5900 5900 5900 5900 5900 5899 5898 5897 5896 5896 5896 5896 5896 5896 5896 5896 5895 5895 5896 5896 5896 5895 5895
5912 5911 5910 5908 5906 5905 5904 5903 5903 5902 5901 5901 5901 5901 5900 5900 5899 5899 5898 5898 5897 5897 5897 5897 5898 5898 5898 5897 5896 5896 5895 5895 5895 5895 5895 5895 5894 5894 5894 5895 5895 5895 5895
5911 5910 5908 5906 5905 5903 5902 5901 5900 5900 5899 5899 5898 5898 5897 5897 5896 5896 5896 5895 5895 5894 5894 5894 5895 5895 5896 5896 5895 5895 5894 5893 5893 5893 5893 5893 5893 5893 5893 5893 5894 5894 5894
5908 5907 5905 5903 5902 5900 5899 5898 5897 5896 5896 5895 5894 5894 5893 5892 5892 5891 5891 5890 5890 5890 5890 5890 5890 5891 5892 5892 5892 5892 5892 5891 5891 5891 5891 5892 5892 5891 5891 5891 5892 5893 5893
5905 5903 5902 5900 5899 5898 5896 5895 5894 5893 5892 5891 5890 5888 5888 5887 5886 5886 5886 5885 5885 5885 5886 5886 5886 5886 5886 5887 5887 5887 5887 5887 5888 5887 5888 5889 5889 5889 5889 5889 5889 5890 5891
5902 5900 5899 5897 5896 5894 5893 5891 5890 5889 5887 5886 5885 5883 5882 5882 5881 5880 5880 5880 5879 5879 5880 5880 5880 5880 5880 5880 5880 5881 5882 5882 5882 5883 5883 5884 5886 5886 5886 5886 5886 5887 5888
5898 5896 5895 5893 5891 5889 5888 5886 5885 5883 5882 5880 5879 5877 5877 5876 5875 5874 5874 5873 5873 5873 5874 5874 5874 5874 5874 5873 5873 5874 5875 5875 5876 5877 5878 5879 5880 5881 5882 5882 5882 5883 5884
5894 5892 5890 5888 5886 5884 5882 5880 5878 5876 5874 5873 5872 5870 5869 5869 5868 5868 5868 5867 5867 5867 5867 5868 5867 5867 5867 5866 5867 5867 5868 5869 5869 5870 5871 5872 5874 5875 5877 5877 5878 5879 5881
5888 5886 5882 5880 5878 5876 5874 5872 5870 5868 5866 5865 5864 5863 5862 5861 5861 5861 5861 5860 5860 5860 5861 5860 5860 5860 5860 5860 5861 5862 5863 5863 5863 5864 5865 5866 5867 5868 5870 5872 5872 5873 5876
5882 5878 5874 5870 5869 5866 5865 5863 5862 5860 5858 5857 5856 5855 5854 5854 5855 5855 5854 5854 5854 5854 5854 5854 5854 5853 5854 5854 5856 5858 5858 5859 5859 5859 5860 5860 5861 5862 5864 5865 5866 5867 5870
5876 5870 5864 5861 5860 5858 5856 5855 5853 5850 5848 5848 5848 5847 5847 5847 5848 5848 5848 5848 5847 5847 5848 5848 5848 5848 5848 5850 5851 5853 5854 5854 5855 5855 5855 5855 5856 5857 5858 5859 5861 5862 5863
5869 5863 5857 5854 5853 5851 5848 5846 5843 5840 5838 5837 5838 5838 5839 5839 5840 5840 5840 5841 5841 5841 5841 5842 5842 5843 5844 5845 5847 5848 5849 5850 5850 5850 5851 5851 5852 5853 5853 5854 5855 5856 5857
5861 5856 5853 5850 5847 5844 5841 5838 5833 5830 5828 5828 5829 5830 5831 5832 5832 5833 5833 5834 5834 5834 5835 5835 5836 5837 5838 5840 5841 5842 5843 5844 5845 5845 5845 5846 5846 5847 5848 5849 5849 5850 5851
5855 5851 5848 5844 5841 5838 5835 5831 5826 5822 5820 5820 5822 5823 5824 5825 5825 5826 5826 5827 5827 5827 5828 5829 5829 5831 5832 5833 5835 5836 5837 5838 5839 5839 5839 5840 5841 5841 5842 5842 5843 5844 5846
5850 5846 5843 5840 5836 5833 5830 5826 5821 5818 5816 5816 5817 5817 5818 5818 5818 5819 5820 5820 5820 5820 5821 5822 5822 5823 5825 5827 5829 5831 5832 5832 5833 5834 5834 5834 5835 5835 5835 5836 5837 5838 5839
5844 5841 5838 5835 5831 5828 5825 5822 5819 5816 5814 5813 5812 5812 5812 5811 5812 5813 5813 5813 5814 5814 5814 5815 5815 5816 5818 5821 5823 5825 5826 5827 5829 5830 5830 5830 5830 5830 5830 5830 5831 5832 5833
5839 5836 5833 5829 5826 5823 5821 5819 5816 5814 5812 5810 5808 5807 5806 5805 5805 5806 5806 5806 5806 5807 5808 5808 5809 5810 5812 5814 5816 5818 5820 5822 5823 5825 5826 5826 5826 5826 5826 5825 5826 5826 5828
5833 5830 5826 5823 5821 5818 5816 5814 5812 5810 5808 5806 5804 5803 5801 5800 5799 5798 5798 5798 5799 5800 5801 5802 5803 5804 5806 5808 5810 5812 5815 5817 5818 5819 5821 5821 5822 5822 5822 5821 5821 5821 5822
5825 5822 5819 5816 5813 5811 5809 5808 5806 5805 5803 5801 5800 5798 5796 5795 5793 5792 5791 5791 5791 5792 5794 5795 5796 5798 5800 5802 5804 5807 5809 5811 5812 5814 5815 5817 5817 5818 5818 5817 5817 5817 5817
5817 5814 5811 5808 5805 5803 5801 5800 5798 5797 5796 5794 5793 5792 5790 5789 5787 5785 5785 5784 5784 5785 5786 5787 5789 5791 5794 5796 5798 5800 5802 5804 5806 5808 5810 5812 5813 5813 5813 5813 5813 5812 5812
5808 5805 5801 5798 5796 5793 5791 5790 5788 5787 5785 5784 5784 5783 5781 5780 5779 5778 5777 5777 5777 5778 5778 5779 5781 5783 5786 5789 5791 5793 5796 5797 5799 5801 5804 5806 5807 5808 5809 5809 5809 5808 5808
5800 5796 5792 5788 5785 5781 5778 5776 5774 5773 5772 5771 5770 5770 5769 5768 5768 5768 5768 5768 5768 5769 5769 5770 5772 5774 5777 5780 5783 5786 5789 5791 5792 5794 5797 5799 5801 5802 5803 5803 5803 5803 5803